| time (UTC) | temp F | wind direction | speed knots | gust knots | rain 1hr in | rain 24hr in | rain mn in | humidity % | barometer mb |
| 20260507131044 | 57 | 223 | 0.9 | 2.6 | 0.00 | 1.27 | 0.35 | 67 | 1013.8 |
| 20260507130035 | 58 | 324 | 1.7 | 3.5 | 0.00 | 1.28 | 0.35 | 65 | 1013.8 |
| 20260507125026 | 58 | 146 | 0.0 | 1.7 | 0.00 | 1.28 | 0.35 | 65 | 1013.8 |
| 20260507124018 | 58 | 160 | 0.9 | 2.6 | 0.00 | 1.28 | 0.35 | 66 | 1013.7 |
| 20260507123041 | 58 | 204 | 1.7 | 2.6 | 0.00 | 1.28 | 0.35 | 64 | 1013.8 |
| 20260507122031 | 57 | 247 | 0.9 | 2.6 | 0.00 | 1.28 | 0.35 | 67 | 1013.6 |
| 20260507121022 | 56 | 10 | 0.0 | 1.7 | 0.00 | 1.28 | 0.35 | 68 | 1013.7 |
| 20260507120044 | 57 | 272 | 0.0 | 1.7 | 0.00 | 1.28 | 0.35 | 72 | 1013.7 |
| 20260507115036 | 57 | 328 | 0.9 | 1.7 | 0.00 | 1.28 | 0.35 | 72 | 1013.7 |
| 20260507114027 | 57 | 311 | 0.0 | 1.7 | 0.00 | 1.28 | 0.35 | 71 | 1013.6 |
| 20260507113019 | 56 | 132 | 0.9 | 3.5 | 0.00 | 1.28 | 0.35 | 72 | 1013.5 |
| 20260507112040 | 57 | 176 | 0.9 | 2.6 | 0.00 | 1.28 | 0.35 | 72 | 1013.6 |
| 20260507111032 | 57 | 0.0 | 0.9 | 0.00 | 1.28 | 0.35 | 72 | 1013.7 | |
| 20260507110043 | 55 | 144 | 0.0 | 2.6 | 0.00 | 1.28 | 0.35 | 76 | 1013.5 |
| 20260507105045 | 54 | 247 | 0.0 | 1.7 | 0.00 | 1.28 | 0.35 | 81 | 1013.7 |
| 20260507104057 | 54 | 183 | 0.0 | 1.7 | 0.00 | 1.28 | 0.35 | 82 | 1013.7 |
| 20260507103027 | 54 | 175 | 0.0 | 1.7 | 0.00 | 1.28 | 0.35 | 84 | 1013.6 |
| 20260507102019 | 53 | 179 | 1.7 | 1.7 | 0.00 | 1.28 | 0.35 | 84 | 1013.6 |
| 20260507101101 | 53 | 329 | 0.9 | 2.6 | 0.00 | 1.28 | 0.35 | 85 | 1013.6 |
| 20260507100032 | 54 | 331 | 0.9 | 4.3 | 0.00 | 1.27 | 0.35 | 88 | 1013.6 |
| 20260507095044 | 53 | 0.0 | 0.9 | 0.00 | 1.27 | 0.35 | 84 | 1013.5 | |
| 20260507094045 | 53 | 141 | 0.9 | 3.5 | 0.00 | 1.27 | 0.35 | 84 | 1013.4 |
| 20260507093037 | 53 | 161 | 0.9 | 3.5 | 0.00 | 1.27 | 0.35 | 84 | 1013.2 |
| 20260507092049 | 53 | 143 | 1.7 | 4.3 | 0.00 | 1.27 | 0.35 | 82 | 1013.3 |
| 20260507091040 | 53 | 195 | 0.9 | 2.6 | 0.00 | 1.27 | 0.35 | 83 | 1013.2 |
| 20260507090106 | 54 | 237 | 1.7 | 3.5 | 0.00 | 1.27 | 0.35 | 81 | 1013.1 |
| 20260507085033 | 53 | 7 | 0.9 | 1.7 | 0.00 | 1.27 | 0.35 | 82 | 1013.1 |
| 20260507084024 | 52 | 155 | 0.9 | 3.5 | 0.00 | 1.27 | 0.35 | 85 | 1013.0 |
| 20260507083046 | 52 | 231 | 1.7 | 6.1 | 0.00 | 1.27 | 0.35 | 86 | 1013.0 |
| 20260507082037 | 52 | 235 | 0.9 | 1.7 | 0.00 | 1.27 | 0.35 | 86 | 1012.9 |
| 20260507081029 | 52 | 228 | 0.9 | 1.7 | 0.00 | 1.27 | 0.35 | 88 | 1012.9 |
| 20260507080021 | 52 | 130 | 0.9 | 2.6 | 0.00 | 1.27 | 0.35 | 87 | 1012.9 |
| 20260507075042 | 51 | 0.0 | 1.7 | 0.00 | 1.27 | 0.35 | 89 | 1012.8 | |
| 20260507074034 | 51 | 0.0 | 0.9 | 0.00 | 1.27 | 0.35 | 90 | 1012.7 | |
| 20260507073025 | 51 | 172 | 0.0 | 1.7 | 0.00 | 1.27 | 0.35 | 90 | 1012.8 |
| 20260507072017 | 51 | 0.0 | 0.0 | 0.00 | 1.27 | 0.35 | 90 | 1012.6 | |
| 20260507071039 | 51 | 164 | 0.0 | 0.9 | 0.00 | 1.27 | 0.35 | 89 | 1012.5 |
| 20260507070031 | 51 | 0.0 | 0.9 | 0.00 | 1.27 | 0.35 | 88 | 1012.5 | |
| 20260507065021 | 51 | 0.0 | 0.9 | 0.00 | 1.27 | 0.35 | 92 | 1012.5 | |
| 20260507064043 | 50 | 0.0 | 0.0 | 0.00 | 1.27 | 0.35 | 91 | 1012.3 | |
| 20260507063034 | 50 | 0.0 | 1.7 | 0.00 | 1.27 | 0.35 | 90 | 1012.3 | |
| 20260507062026 | 50 | 250 | 0.0 | 0.9 | 0.00 | 1.27 | 0.35 | 91 | 1012.2 |
| 20260507061018 | 50 | 172 | 0.0 | 1.7 | 0.01 | 1.27 | 0.35 | 91 | 1012.1 |
| 20260507060059 | 50 | 0.0 | 1.7 | 0.01 | 1.27 | 0.35 | 90 | 1011.9 | |
| 20260507055031 | 50 | 103 | 0.0 | 1.7 | 0.01 | 1.27 | 0.34 | 92 | 1011.9 |
| 20260507054022 | 50 | 117 | 0.9 | 2.6 | 0.01 | 1.27 | 0.34 | 93 | 1012.0 |
| 20260507053044 | 49 | 329 | 0.0 | 0.9 | 0.01 | 1.27 | 0.34 | 93 | 1011.8 |
| 20260507052035 | 49 | 137 | 0.0 | 2.6 | 0.02 | 1.27 | 0.34 | 93 | 1011.7 |
| 20260507051027 | 49 | 147 | 0.0 | 2.6 | 0.02 | 1.26 | 0.34 | 95 | 1011.6 |
| 20260507050038 | 49 | 150 | 0.9 | 2.6 | 0.03 | 1.26 | 0.34 | 95 | 1011.6 |
| 20260507045040 | 49 | 111 | 0.9 | 1.7 | 0.03 | 1.26 | 0.33 | 95 | 1011.4 |
| 20260507044031 | 49 | 138 | 0.9 | 3.5 | 0.04 | 1.26 | 0.33 | 94 | 1011.3 |
| 20260507043023 | 49 | 169 | 0.9 | 2.6 | 0.03 | 1.26 | 0.33 | 95 | 1011.1 |
| 20260507042105 | 49 | 356 | 0.0 | 1.7 | 0.03 | 1.25 | 0.33 | 95 | 1011.1 |
| 20260507041037 | 50 | 320 | 0.0 | 1.7 | 0.03 | 1.24 | 0.32 | 93 | 1011.1 |
| 20260507040108 | 50 | 270 | 0.9 | 2.6 | 0.02 | 1.24 | 0.31 | 93 | 1011.0 |
| 20260507035019 | 50 | 259 | 1.7 | 3.5 | 0.02 | 1.23 | 0.31 | 92 | 1010.9 |
| 20260507034041 | 50 | 289 | 0.9 | 3.5 | 0.02 | 1.22 | 0.30 | 93 | 1010.9 |
| 20260507033033 | 50 | 267 | 1.7 | 3.5 | 0.04 | 1.22 | 0.30 | 94 | 1010.8 |
| 20260507032024 | 50 | 289 | 1.7 | 3.5 | 0.04 | 1.22 | 0.30 | 95 | 1010.6 |
| 20260507031037 | 50 | 262 | 1.7 | 5.2 | 0.04 | 1.22 | 0.29 | 95 | 1010.5 |
| 20260507030038 | 50 | 218 | 3.5 | 6.1 | 0.04 | 1.21 | 0.29 | 96 | 1010.3 |
| 20260507025030 | 50 | 259 | 2.6 | 4.3 | 0.05 | 1.21 | 0.28 | 96 | 1010.3 |
| 20260507024021 | 50 | 214 | 2.6 | 5.2 | 0.04 | 1.20 | 0.28 | 96 | 1010.1 |
| 20260507023044 | 50 | 224 | 2.6 | 5.2 | 0.04 | 1.19 | 0.26 | 96 | 1010.2 |
| 20260507022055 | 50 | 212 | 1.7 | 6.1 | 0.03 | 1.18 | 0.25 | 96 | 1010.0 |
| 20260507021027 | 50 | 237 | 1.7 | 3.5 | 0.03 | 1.17 | 0.25 | 95 | 1009.9 |
| 20260507020036 | 50 | 200 | 0.9 | 3.5 | 0.04 | 1.17 | 0.24 | 95 | 1009.8 |
| 20260507015051 | 50 | 255 | 0.9 | 3.5 | 0.04 | 1.16 | 0.24 | 95 | 1009.8 |
| 20260507014102 | 50 | 101 | 0.9 | 3.5 | 0.05 | 1.16 | 0.23 | 95 | 1009.7 |
| 20260507013029 | 50 | 96 | 1.7 | 5.2 | 0.05 | 1.15 | 0.23 | 95 | 1009.6 |
| 20260507012021 | 50 | 124 | 0.9 | 3.5 | 0.05 | 1.15 | 0.22 | 95 | 1009.6 |
| 20260507011104 | 50 | 165 | 1.7 | 3.5 | 0.05 | 1.14 | 0.22 | 95 | 1009.5 |
| 20260507010035 | 50 | 142 | 0.9 | 3.5 | 0.06 | 1.13 | 0.21 | 95 | 1009.4 |
| 20260507005026 | 51 | 226 | 1.7 | 3.5 | 0.06 | 1.12 | 0.20 | 95 | 1009.5 |
| 20260507004018 | 51 | 214 | 1.7 | 5.2 | 0.07 | 1.11 | 0.19 | 95 | 1009.4 |
| 20260507003040 | 51 | 254 | 1.7 | 3.5 | 0.07 | 1.10 | 0.18 | 94 | 1009.4 |
| 20260507002052 | 51 | 200 | 3.5 | 7.8 | 0.09 | 1.10 | 0.17 | 94 | 1009.3 |
| 20260507001024 | 51 | 211 | 6.1 | 10.4 | 0.10 | 1.09 | 0.17 | 95 | 1009.3 |
| 20260507000106 | 51 | 232 | 3.5 | 8.7 | 0.10 | 1.08 | 0.15 | 95 | 1009.3 |
| 20260506235037 | 51 | 223 | 2.6 | 5.2 | 0.09 | 1.06 | 0.13 | 95 | 1009.1 |
| 20260506234029 | 51 | 212 | 3.5 | 6.1 | 0.08 | 1.04 | 0.12 | 95 | 1009.1 |
| 20260506233141 | 51 | 204 | 2.6 | 6.1 | 0.07 | 1.03 | 0.10 | 93 | 1009.1 |
| 20260506232043 | 51 | 199 | 3.5 | 8.7 | 0.07 | 1.01 | 0.09 | 92 | 1008.8 |
| 20260506231055 | 52 | 212 | 1.7 | 4.3 | 0.06 | 0.99 | 0.07 | 92 | 1008.7 |
| 20260506230046 | 52 | 157 | 3.5 | 6.1 | 0.05 | 0.98 | 0.06 | 91 | 1008.7 |
| 20260506225018 | 52 | 152 | 1.7 | 5.2 | 0.05 | 0.97 | 0.05 | 91 | 1008.7 |
| 20260506224039 | 52 | 101 | 3.5 | 7.8 | 0.05 | 0.96 | 0.04 | 90 | 1008.6 |
| 20260506223032 | 52 | 153 | 2.6 | 6.1 | 0.05 | 0.95 | 0.03 | 91 | 1008.5 |
| 20260506222023 | 52 | 136 | 3.5 | 7.8 | 0.06 | 0.94 | 0.02 | 92 | 1008.5 |
| 20260506221126 | 52 | 138 | 2.6 | 5.2 | 0.07 | 0.94 | 0.01 | 92 | 1008.5 |
| 20260506220036 | 52 | 125 | 1.7 | 4.3 | 0.09 | 0.93 | 0.00 | 93 | 1008.5 |
| 20260506215028 | 52 | 147 | 2.6 | 5.2 | 0.11 | 0.92 | 0.92 | 92 | 1008.5 |
| 20260506214020 | 52 | 140 | 2.6 | 7.0 | 0.13 | 0.91 | 0.91 | 92 | 1008.4 |
| 20260506213042 | 52 | 144 | 3.5 | 7.0 | 0.13 | 0.90 | 0.90 | 92 | 1008.5 |
| 20260506212033 | 52 | 133 | 2.6 | 6.1 | 0.13 | 0.88 | 0.88 | 92 | 1008.4 |
| 20260506211026 | 52 | 136 | 2.6 | 4.3 | 0.14 | 0.86 | 0.86 | 92 | 1008.5 |
| 20260506210017 | 52 | 126 | 2.6 | 5.2 | 0.15 | 0.84 | 0.84 | 91 | 1008.3 |
| 20260506205039 | 52 | 142 | 1.7 | 4.3 | 0.15 | 0.81 | 0.81 | 92 | 1008.3 |
| 20260506204031 | 52 | 127 | 2.6 | 5.2 | 0.16 | 0.79 | 0.79 | 92 | 1008.3 |
| 20260506203042 | 52 | 132 | 3.5 | 7.0 | 0.17 | 0.77 | 0.77 | 93 | 1008.3 |
| 20260506202044 | 52 | 131 | 3.5 | 7.0 | 0.18 | 0.75 | 0.75 | 92 | 1008.3 |
| 20260506201036 | 52 | 144 | 2.6 | 8.7 | 0.18 | 0.72 | 0.72 | 93 | 1008.2 |
| 20260506200027 | 52 | 148 | 2.6 | 7.0 | 0.17 | 0.69 | 0.69 | 93 | 1008.1 |
| 20260506195019 | 52 | 188 | 1.7 | 4.3 | 0.17 | 0.66 | 0.66 | 93 | 1008.0 |
| 20260506194041 | 52 | 129 | 2.6 | 7.0 | 0.17 | 0.63 | 0.63 | 93 | 1007.9 |
| 20260506193032 | 52 | 173 | 3.5 | 7.8 | 0.17 | 0.60 | 0.60 | 92 | 1007.8 |
| 20260506192024 | 52 | 165 | 3.5 | 7.8 | 0.16 | 0.57 | 0.57 | 92 | 1007.7 |
| 20260506191046 | 53 | 190 | 2.6 | 7.0 | 0.15 | 0.54 | 0.54 | 92 | 1007.6 |
| 20260506190037 | 53 | 192 | 2.6 | 5.2 | 0.15 | 0.52 | 0.52 | 92 | 1007.4 |
| 20260506185028 | 53 | 184 | 2.6 | 4.3 | 0.13 | 0.49 | 0.49 | 92 | 1007.3 |
| 20260506184019 | 53 | 205 | 1.7 | 3.5 | 0.12 | 0.46 | 0.46 | 91 | 1007.1 |
| 20260506183041 | 53 | 151 | 2.6 | 5.2 | 0.10 | 0.43 | 0.43 | 91 | 1006.9 |
| 20260506182032 | 53 | 144 | 2.6 | 5.2 | 0.09 | 0.41 | 0.41 | 91 | 1006.9 |
| 20260506181023 | 53 | 142 | 1.7 | 3.5 | 0.08 | 0.39 | 0.39 | 91 | 1006.7 |
| 20260506180045 | 53 | 175 | 3.5 | 7.0 | 0.06 | 0.37 | 0.37 | 90 | 1006.5 |
| 20260506175037 | 54 | 142 | 1.7 | 5.2 | 0.06 | 0.35 | 0.35 | 89 | 1006.4 |
| 20260506174028 | 54 | 209 | 3.5 | 5.2 | 0.04 | 0.34 | 0.34 | 89 | 1006.3 |
| 20260506173019 | 54 | 167 | 3.5 | 7.0 | 0.03 | 0.33 | 0.33 | 87 | 1006.0 |
| 20260506172041 | 55 | 204 | 3.5 | 5.2 | 0.02 | 0.37 | 0.32 | 88 | 1006.0 |
| 20260506171032 | 55 | 174 | 2.6 | 6.1 | 0.02 | 0.42 | 0.31 | 88 | 1005.8 |
| 20260506170024 | 55 | 160 | 2.6 | 5.2 | 0.02 | 0.45 | 0.31 | 88 | 1006.0 |
| 20260506165046 | 55 | 216 | 2.6 | 6.1 | 0.01 | 0.45 | 0.30 | 87 | 1005.9 |
| 20260506164037 | 55 | 144 | 3.5 | 9.6 | 0.02 | 0.47 | 0.30 | 87 | 1006.0 |
| 20260506163029 | 55 | 141 | 1.7 | 4.3 | 0.03 | 0.48 | 0.30 | 87 | 1005.9 |
| 20260506162021 | 55 | 149 | 2.6 | 5.2 | 0.05 | 0.49 | 0.30 | 87 | 1005.9 |
| 20260506161043 | 55 | 159 | 2.6 | 4.3 | 0.09 | 0.48 | 0.29 | 88 | 1005.9 |
| 20260506160033 | 55 | 154 | 1.7 | 3.5 | 0.11 | 0.48 | 0.29 | 88 | 1006.0 |
| 20260506155025 | 55 | 152 | 2.6 | 4.3 | 0.14 | 0.48 | 0.29 | 89 | 1006.0 |
| 20260506154017 | 54 | 135 | 2.6 | 5.2 | 0.17 | 0.47 | 0.28 | 91 | 1006.0 |
| 20260506153038 | 54 | 135 | 2.6 | 4.3 | 0.19 | 0.46 | 0.27 | 92 | 1005.9 |
| 20260506152053 | 54 | 161 | 3.5 | 7.0 | 0.18 | 0.44 | 0.24 | 92 | 1006.0 |
| 20260506151019 | 55 | 189 | 3.5 | 7.0 | 0.14 | 0.40 | 0.20 | 91 | 1005.9 |
| 20260506150041 | 55 | 144 | 3.5 | 10.4 | 0.12 | 0.37 | 0.18 | 91 | 1005.6 |
| 20260506145032 | 55 | 130 | 5.2 | 8.7 | 0.09 | 0.34 | 0.15 | 91 | 1005.6 |
| 20260506144023 | 55 | 138 | 3.5 | 8.7 | 0.06 | 0.31 | 0.11 | 91 | 1005.6 |
| 20260506143046 | 55 | 133 | 3.5 | 7.8 | 0.04 | 0.27 | 0.08 | 90 | 1005.5 |
| 20260506142037 | 56 | 148 | 3.5 | 7.8 | 0.04 | 0.26 | 0.07 | 88 | 1005.4 |
| 20260506141048 | 56 | 155 | 4.3 | 8.7 | 0.06 | 0.26 | 0.06 | 86 | 1005.3 |
| 20260506140020 | 57 | 113 | 0.9 | 4.3 | 0.06 | 0.25 | 0.06 | 86 | 1005.3 |
| 20260506135042 | 57 | 150 | 2.6 | 7.0 | 0.06 | 0.25 | 0.06 | 89 | 1005.2 |
| 20260506134033 | 57 | 129 | 2.6 | 4.3 | 0.05 | 0.24 | 0.05 | 89 | 1005.1 |
| 20260506133025 | 57 | 189 | 2.6 | 5.2 | 0.04 | 0.23 | 0.04 | 87 | 1005.1 |
| 20260506132041 | 58 | 213 | 2.6 | 6.1 | 0.03 | 0.22 | 0.03 | 81 | 1005.0 |